| time (UTC) | temp F | wind direction | speed knots | gust knots | rain 1hr in | rain 24hr in | rain mn in | humidity % | barometer mb |
| 20260901220329 | 89 | 256 | 3.5 | 3.5 | 0.00 | 0.01 | 0.00 | 74 | 1013.3 |
| 20260901220049 | 89 | 229 | 1.7 | 3.5 | 0.00 | 0.01 | 0.00 | 74 | 1013.3 |
| 20260901215327 | 89 | 202 | 1.7 | 4.3 | 0.00 | 0.01 | 0.00 | 74 | 1013.3 |
| 20260901214827 | 89 | 355 | 0.9 | 4.3 | 0.00 | 0.01 | 0.00 | 73 | 1013.3 |
| 20260901214327 | 90 | 355 | 0.9 | 4.3 | 0.00 | 0.03 | 0.00 | 73 | 1013.3 |
| 20260901213827 | 90 | 248 | 1.7 | 3.5 | 0.00 | 0.03 | 0.00 | 73 | 1013.3 |
| 20260901213326 | 89 | 271 | 0.9 | 3.5 | 0.00 | 0.03 | 0.00 | 74 | 1013.3 |
| 20260901212826 | 89 | 254 | 1.7 | 3.5 | 0.00 | 0.05 | 0.00 | 74 | 1013.3 |
| 20260901212550 | 89 | 228 | 0.9 | 2.6 | 0.00 | 0.05 | 0.00 | 76 | 1013.7 |
| 20260901212045 | 89 | 280 | 1.7 | 2.6 | 0.00 | 0.05 | 0.00 | 77 | 1013.7 |
| 20260901211323 | 90 | 244 | 1.7 | 2.6 | 0.00 | 0.05 | 0.00 | 75 | 1013.3 |
| 20260901210822 | 90 | 248 | 1.7 | 3.5 | 0.00 | 0.05 | 0.00 | 75 | 1013.3 |
| 20260901210322 | 90 | 232 | 1.7 | 3.5 | 0.00 | 0.05 | 0.00 | 74 | 1013.7 |
| 20260901205821 | 90 | 227 | 2.6 | 3.5 | 0.00 | 0.05 | 0.00 | 73 | 1013.3 |
| 20260901205325 | 90 | 261 | 2.6 | 4.3 | 0.00 | 0.05 | 0.00 | 72 | 1013.7 |
| 20260901204821 | 90 | 253 | 1.7 | 4.3 | 0.00 | 0.05 | 0.00 | 73 | 1013.7 |
| 20260901204319 | 90 | 258 | 1.7 | 2.6 | 0.00 | 0.05 | 0.00 | 73 | 1013.7 |
| 20260901203821 | 89 | 249 | 1.7 | 3.5 | 0.00 | 0.05 | 0.00 | 74 | 1013.7 |
| 20260901203319 | 89 | 263 | 2.6 | 3.5 | 0.00 | 0.05 | 0.00 | 74 | 1013.7 |
| 20260901202819 | 90 | 256 | 1.7 | 4.3 | 0.00 | 0.05 | 0.00 | 73 | 1013.7 |
| 20260901202318 | 90 | 290 | 1.7 | 4.3 | 0.00 | 0.05 | 0.00 | 72 | 1013.7 |
| 20260901201819 | 91 | 247 | 2.6 | 4.3 | 0.00 | 0.05 | 0.00 | 71 | 1013.7 |
| 20260901201316 | 91 | 245 | 1.7 | 4.3 | 0.00 | 0.05 | 0.00 | 71 | 1013.7 |
| 20260901200817 | 91 | 272 | 1.7 | 4.3 | 0.00 | 0.05 | 0.00 | 71 | 1013.7 |
| 20260901200316 | 91 | 236 | 2.6 | 4.3 | 0.00 | 0.07 | 0.00 | 71 | 1013.7 |
| 20260901195816 | 91 | 250 | 1.7 | 4.3 | 0.00 | 0.07 | 0.00 | 70 | 1013.7 |
| 20260901195316 | 91 | 240 | 3.5 | 4.3 | 0.00 | 0.07 | 0.00 | 72 | 1013.3 |
| 20260901194815 | 91 | 257 | 3.5 | 4.3 | 0.00 | 0.07 | 0.00 | 71 | 1013.7 |
| 20260901194314 | 91 | 249 | 3.5 | 4.3 | 0.00 | 0.07 | 0.00 | 73 | 1013.7 |
| 20260901193816 | 91 | 223 | 1.7 | 5.2 | 0.00 | 0.07 | 0.00 | 73 | 1013.7 |
| 20260901193315 | 91 | 251 | 1.7 | 5.2 | 0.00 | 0.07 | 0.00 | 73 | 1013.7 |
| 20260901192814 | 91 | 224 | 3.5 | 5.2 | 0.00 | 0.07 | 0.00 | 72 | 1014.0 |
| 20260901192313 | 91 | 252 | 1.7 | 5.2 | 0.00 | 0.07 | 0.00 | 74 | 1014.0 |
| 20260901191811 | 91 | 267 | 3.5 | 5.2 | 0.00 | 0.07 | 0.00 | 74 | 1013.7 |
| 20260901191324 | 91 | 256 | 3.5 | 5.2 | 0.00 | 0.07 | 0.00 | 72 | 1014.0 |
| 20260901190815 | 91 | 256 | 1.7 | 5.2 | 0.00 | 0.07 | 0.00 | 75 | 1014.0 |
| 20260901190310 | 91 | 245 | 1.7 | 5.2 | 0.00 | 0.07 | 0.00 | 73 | 1014.0 |
| 20260901185812 | 91 | 281 | 3.5 | 4.3 | 0.00 | 0.07 | 0.00 | 74 | 1014.0 |
| 20260901185529 | 90 | 243 | 1.7 | 4.3 | 0.00 | 0.07 | 0.00 | 74 | 1014.0 |
| 20260901184810 | 90 | 246 | 1.7 | 5.2 | 0.00 | 0.07 | 0.00 | 72 | 1014.0 |
| 20260901184309 | 91 | 244 | 3.5 | 5.2 | 0.00 | 0.07 | 0.00 | 71 | 1014.0 |
| 20260901183807 | 90 | 223 | 2.6 | 7.0 | 0.00 | 0.07 | 0.00 | 71 | 1014.0 |
| 20260901183308 | 90 | 261 | 1.7 | 7.0 | 0.00 | 0.07 | 0.00 | 70 | 1014.3 |
| 20260901182807 | 90 | 241 | 3.5 | 3.5 | 0.00 | 0.07 | 0.00 | 72 | 1014.0 |
| 20260901182307 | 90 | 263 | 0.9 | 3.5 | 0.00 | 0.07 | 0.00 | 72 | 1014.0 |
| 20260901182254 | 90 | 212 | 1.7 | 7.0 | 0.00 | 0.08 | 0.00 | 69 | 1014.0 |
| 20260901181305 | 90 | 299 | 1.7 | 7.0 | 0.00 | 0.08 | 0.00 | 69 | 1014.0 |
| 20260901180805 | 89 | 265 | 1.7 | 4.3 | 0.00 | 0.08 | 0.00 | 72 | 1014.3 |
| 20260901180305 | 90 | 285 | 2.6 | 5.2 | 0.00 | 0.08 | 0.00 | 71 | 1014.0 |
| 20260901175804 | 90 | 231 | 2.6 | 5.2 | 0.00 | 0.08 | 0.00 | 70 | 1014.0 |
| 20260901175305 | 89 | 254 | 2.6 | 5.2 | 0.00 | 0.08 | 0.00 | 71 | 1014.3 |
| 20260901174802 | 89 | 238 | 1.7 | 5.2 | 0.00 | 0.08 | 0.00 | 70 | 1014.3 |
| 20260901174303 | 89 | 234 | 2.6 | 6.1 | 0.00 | 0.08 | 0.00 | 70 | 1014.3 |
| 20260901174016 | 89 | 259 | 1.7 | 5.2 | 0.00 | 0.08 | 0.00 | 69 | 1014.3 |
| 20260901173859 | 89 | 236 | 0.9 | 6.1 | 0.00 | 0.08 | 0.00 | 70 | 1014.3 |
| 20260901172803 | 89 | 251 | 1.7 | 2.6 | 0.00 | 0.08 | 0.00 | 73 | 1014.3 |
| 20260901172300 | 89 | 224 | 0.9 | 5.2 | 0.00 | 0.08 | 0.00 | 71 | 1014.3 |
| 20260901171758 | 88 | 252 | 3.5 | 5.2 | 0.00 | 0.08 | 0.00 | 73 | 1014.3 |
| 20260901171300 | 88 | 263 | 2.6 | 5.2 | 0.00 | 0.08 | 0.00 | 73 | 1014.3 |
| 20260901170759 | 88 | 252 | 1.7 | 5.2 | 0.00 | 0.08 | 0.00 | 75 | 1014.3 |
| 20260901170311 | 88 | 260 | 3.5 | 4.3 | 0.00 | 0.08 | 0.00 | 74 | 1014.3 |
| 20260901165758 | 88 | 284 | 3.5 | 4.3 | 0.00 | 0.08 | 0.00 | 77 | 1014.3 |
| 20260901165259 | 88 | 229 | 0.0 | 4.3 | 0.00 | 0.08 | 0.00 | 78 | 1014.7 |
| 20260901165016 | 87 | 212 | 3.5 | 4.3 | 0.00 | 0.08 | 0.00 | 79 | 1014.7 |
| 20260901164257 | 87 | 236 | 2.6 | 4.3 | 0.00 | 0.08 | 0.00 | 78 | 1014.3 |
| 20260901164016 | 87 | 233 | 2.6 | 4.3 | 0.00 | 0.08 | 0.00 | 81 | 1014.7 |
| 20260901163256 | 87 | 246 | 3.5 | 3.5 | 0.00 | 0.08 | 0.00 | 81 | 1014.7 |
| 20260901162755 | 86 | 234 | 1.7 | 4.3 | 0.00 | 0.08 | 0.00 | 82 | 1014.7 |
| 20260901162253 | 86 | 251 | 2.6 | 4.3 | 0.00 | 0.08 | 0.00 | 81 | 1014.7 |
| 20260901161754 | 86 | 239 | 1.7 | 3.5 | 0.00 | 0.08 | 0.00 | 80 | 1014.7 |
| 20260901161252 | 85 | 212 | 2.6 | 3.5 | 0.00 | 0.08 | 0.00 | 79 | 1015.0 |
| 20260901160753 | 85 | 307 | 1.7 | 3.5 | 0.00 | 0.08 | 0.00 | 83 | 1015.0 |
| 20260901160254 | 85 | 253 | 1.7 | 3.5 | 0.00 | 0.08 | 0.00 | 83 | 1014.7 |
| 20260901160016 | 85 | 237 | 0.0 | 3.5 | 0.00 | 0.08 | 0.00 | 84 | 1014.7 |
| 20260901155252 | 84 | 285 | 3.5 | 5.2 | 0.00 | 0.08 | 0.00 | 83 | 1014.7 |
| 20260901154750 | 84 | 256 | 1.7 | 5.2 | 0.00 | 0.08 | 0.00 | 83 | 1014.7 |
| 20260901154250 | 84 | 242 | 2.6 | 4.3 | 0.00 | 0.08 | 0.00 | 85 | 1014.7 |
| 20260901153749 | 83 | 225 | 1.7 | 4.3 | 0.00 | 0.08 | 0.00 | 84 | 1014.7 |
| 20260901153250 | 83 | 254 | 2.6 | 5.2 | 0.00 | 0.08 | 0.00 | 84 | 1014.7 |
| 20260901153012 | 83 | 265 | 5.2 | 5.2 | 0.00 | 0.08 | 0.00 | 84 | 1014.7 |
| 20260901152248 | 83 | 210 | 2.6 | 3.5 | 0.00 | 0.08 | 0.00 | 87 | 1014.7 |
| 20260901152231 | 82 | 248 | 2.6 | 3.5 | 0.00 | 0.08 | 0.00 | 87 | 1014.7 |
| 20260901151247 | 82 | 240 | 0.9 | 3.5 | 0.00 | 0.08 | 0.00 | 87 | 1014.3 |
| 20260901150757 | 82 | 263 | 1.7 | 3.5 | 0.00 | 0.08 | 0.00 | 86 | 1014.7 |
| 20260901150246 | 82 | 224 | 2.6 | 3.5 | 0.00 | 0.08 | 0.00 | 86 | 1014.7 |
| 20260901150010 | 81 | 258 | 1.7 | 3.5 | 0.00 | 0.08 | 0.00 | 87 | 1014.7 |
| 20260901145245 | 81 | 215 | 1.7 | 2.6 | 0.00 | 0.08 | 0.00 | 87 | 1014.3 |
| 20260901144743 | 81 | 231 | 1.7 | 3.5 | 0.00 | 0.08 | 0.00 | 87 | 1014.7 |
| 20260901144243 | 81 | 246 | 2.6 | 3.5 | 0.00 | 0.08 | 0.00 | 87 | 1014.7 |
| 20260901143745 | 81 | 344 | 0.0 | 3.5 | 0.00 | 0.08 | 0.00 | 87 | 1014.7 |
| 20260901143245 | 80 | 228 | 1.7 | 3.5 | 0.00 | 0.08 | 0.00 | 87 | 1014.3 |
| 20260901143004 | 80 | 217 | 0.9 | 3.5 | 0.00 | 0.08 | 0.00 | 87 | 1014.3 |
| 20260901142242 | 80 | 250 | 1.7 | 2.6 | 0.00 | 0.08 | 0.00 | 88 | 1014.7 |
| 20260901141742 | 80 | 228 | 0.0 | 2.6 | 0.00 | 0.08 | 0.00 | 87 | 1014.7 |
| 20260901141241 | 80 | 217 | 1.7 | 2.6 | 0.00 | 0.08 | 0.00 | 88 | 1014.3 |
| 20260901140741 | 80 | 269 | 0.0 | 2.6 | 0.00 | 0.08 | 0.00 | 88 | 1014.3 |
| 20260901140239 | 80 | 236 | 1.7 | 2.6 | 0.00 | 0.08 | 0.00 | 88 | 1014.3 |
| 20260901135738 | 79 | 237 | 1.7 | 4.3 | 0.00 | 0.08 | 0.00 | 88 | 1014.3 |
| 20260901135239 | 79 | 260 | 2.6 | 4.3 | 0.00 | 0.08 | 0.00 | 88 | 1014.3 |
| 20260901134737 | 78 | 243 | 2.6 | 3.5 | 0.00 | 0.08 | 0.00 | 90 | 1014.3 |
| 20260901134239 | 78 | 245 | 0.9 | 5.2 | 0.00 | 0.08 | 0.00 | 90 | 1014.3 |
| 20260901133736 | 77 | 261 | 2.6 | 5.2 | 0.00 | 0.08 | 0.00 | 92 | 1014.3 |
| 20260901133237 | 77 | 240 | 0.9 | 3.5 | 0.00 | 0.08 | 0.00 | 93 | 1014.7 |
| 20260901132737 | 76 | 238 | 1.7 | 3.5 | 0.00 | 0.08 | 0.00 | 93 | 1014.3 |
| 20260901132235 | 76 | 229 | 1.7 | 2.6 | 0.00 | 0.08 | 0.00 | 94 | 1014.3 |
| 20260901131736 | 76 | 181 | 0.0 | 2.6 | 0.00 | 0.08 | 0.00 | 94 | 1014.3 |
| 20260901131233 | 75 | 260 | 0.9 | 2.6 | 0.00 | 0.08 | 0.00 | 94 | 1014.3 |
| 20260901130734 | 75 | 220 | 1.7 | 2.6 | 0.00 | 0.08 | 0.00 | 94 | 1014.7 |
| 20260901130233 | 75 | 233 | 0.9 | 2.6 | 0.00 | 0.08 | 0.00 | 95 | 1014.7 |
| 20260901125950 | 75 | 234 | 0.9 | 1.7 | 0.00 | 0.11 | 0.00 | 95 | 1014.3 |
| 20260901125234 | 75 | 229 | 1.7 | 1.7 | 0.00 | 0.11 | 0.00 | 95 | 1014.7 |
| 20260901125012 | 74 | 251 | 0.9 | 1.7 | 0.00 | 0.11 | 0.00 | 96 | 1014.7 |
| 20260901124233 | 74 | 227 | 0.9 | 1.7 | 0.00 | 0.11 | 0.00 | 96 | 1014.7 |
| 20260901123732 | 74 | 202 | 1.7 | 1.7 | 0.00 | 0.11 | 0.00 | 96 | 1014.7 |
| 20260901123229 | 74 | 240 | 1.7 | 1.7 | 0.00 | 0.11 | 0.00 | 96 | 1014.7 |
| 20260901122730 | 74 | 205 | 0.0 | 1.7 | 0.00 | 0.11 | 0.00 | 96 | 1014.7 |
| 20260901122230 | 74 | 224 | 0.0 | 1.7 | 0.00 | 0.11 | 0.00 | 96 | 1014.7 |
| 20260901121730 | 74 | 258 | 1.7 | 1.7 | 0.00 | 0.11 | 0.00 | 96 | 1014.7 |
| 20260901121229 | 73 | 235 | 0.9 | 1.7 | 0.00 | 0.11 | 0.00 | 97 | 1014.7 |
| 20260901121207 | 73 | 202 | 0.9 | 1.7 | 0.00 | 0.11 | 0.00 | 97 | 1014.3 |
| 20260901120228 | 73 | 197 | 0.9 | 1.7 | 0.00 | 0.13 | 0.00 | 97 | 1014.3 |
| 20260901115728 | 73 | 257 | 0.9 | 1.7 | 0.00 | 0.13 | 0.00 | 97 | 1014.3 |
| 20260901115457 | 73 | 235 | 0.0 | 1.7 | 0.00 | 0.13 | 0.00 | 97 | 1014.3 |
| 20260901114727 | 73 | 205 | 0.9 | 1.7 | 0.00 | 0.13 | 0.00 | 97 | 1014.3 |
| 20260901114224 | 73 | 215 | 1.7 | 1.7 | 0.00 | 0.13 | 0.00 | 97 | 1014.3 |
| 20260901113725 | 73 | 217 | 0.9 | 1.7 | 0.00 | 0.13 | 0.00 | 96 | 1014.3 |
| 20260901113445 | 73 | 209 | 0.9 | 1.7 | 0.00 | 0.13 | 0.00 | 96 | 1014.3 |
| 20260901112943 | 73 | 202 | 0.0 | 1.7 | 0.00 | 0.13 | 0.00 | 96 | 1014.0 |
| 20260901112224 | 73 | 217 | 0.0 | 0.0 | 0.00 | 0.13 | 0.00 | 96 | 1014.0 |
| 20260901111950 | 73 | 217 | 0.0 | 0.9 | 0.00 | 0.13 | 0.00 | 96 | 1013.7 |
| 20260901111221 | 73 | 224 | 0.0 | 1.7 | 0.00 | 0.13 | 0.00 | 96 | 1013.7 |
| 20260901110723 | 73 | 196 | 1.7 | 1.7 | 0.00 | 0.13 | 0.00 | 96 | 1014.0 |
| 20260901110221 | 73 | 222 | 0.9 | 1.7 | 0.00 | 0.13 | 0.00 | 96 | 1014.0 |
| 20260901105720 | 73 | 178 | 0.0 | 1.7 | 0.00 | 0.13 | 0.00 | 95 | 1013.7 |
| 20260901105219 | 73 | 172 | 0.9 | 0.9 | 0.00 | 0.13 | 0.00 | 95 | 1013.7 |
| 20260901104719 | 73 | 212 | 0.0 | 1.7 | 0.00 | 0.14 | 0.00 | 94 | 1013.7 |
| 20260901104219 | 74 | 215 | 0.9 | 1.7 | 0.00 | 0.14 | 0.00 | 94 | 1013.7 |
| 20260901103719 | 74 | 180 | 0.9 | 1.7 | 0.00 | 0.14 | 0.00 | 94 | 1013.3 |
| 20260901103220 | 74 | 116 | 0.9 | 1.7 | 0.00 | 0.14 | 0.00 | 93 | 1013.7 |
| 20260901102945 | 74 | 117 | 0.0 | 1.7 | 0.00 | 0.14 | 0.00 | 93 | 1013.7 |
| 20260901102216 | 75 | 190 | 0.0 | 1.7 | 0.00 | 0.14 | 0.00 | 93 | 1013.7 |
| 20260901101715 | 75 | 215 | 0.9 | 1.7 | 0.00 | 0.14 | 0.00 | 93 | 1013.7 |
| 20260901101215 | 75 | 217 | 0.9 | 1.7 | 0.00 | 0.14 | 0.00 | 93 | 1013.7 |
| 20260901100714 | 75 | 223 | 0.9 | 2.6 | 0.00 | 0.14 | 0.00 | 94 | 1013.7 |
| 20260901100435 | 74 | 230 | 1.7 | 3.5 | 0.00 | 0.14 | 0.00 | 94 | 1013.3 |
| 20260901095714 | 74 | 239 | 3.5 | 3.5 | 0.00 | 0.14 | 0.00 | 94 | 1013.3 |
| 20260901095213 | 74 | 209 | 1.7 | 1.7 | 0.00 | 0.14 | 0.00 | 94 | 1013.3 |
| 20260901094712 | 74 | 258 | 0.0 | 2.6 | 0.00 | 0.14 | 0.00 | 95 | 1013.3 |
| 20260901094212 | 74 | 223 | 0.9 | 2.6 | 0.00 | 0.14 | 0.00 | 95 | 1013.3 |
| 20260901093933 | 74 | 218 | 1.7 | 1.7 | 0.00 | 0.14 | 0.00 | 95 | 1013.7 |
| 20260901093211 | 74 | 224 | 0.9 | 1.7 | 0.00 | 0.14 | 0.00 | 95 | 1013.7 |
| 20260901092711 | 74 | 235 | 0.0 | 1.7 | 0.00 | 0.14 | 0.00 | 95 | 1013.3 |
| 20260901092210 | 74 | 236 | 0.0 | 1.7 | 0.00 | 0.14 | 0.00 | 95 | 1013.3 |
| 20260901091710 | 74 | 333 | 0.0 | 1.7 | 0.00 | 0.14 | 0.00 | 94 | 1013.7 |
| 20260901091223 | 74 | 179 | 0.0 | 1.7 | 0.00 | 0.14 | 0.00 | 94 | 1013.7 |
| 20260901090722 | 74 | 205 | 0.0 | 1.7 | 0.00 | 0.14 | 0.00 | 94 | 1013.7 |
| 20260901090208 | 74 | 219 | 0.9 | 1.7 | 0.00 | 0.14 | 0.00 | 94 | 1013.3 |
| 20260901085707 | 74 | 216 | 1.7 | 1.7 | 0.00 | 0.14 | 0.00 | 95 | 1013.3 |
| 20260901085207 | 74 | 217 | 1.7 | 1.7 | 0.00 | 0.14 | 0.00 | 95 | 1013.3 |
| 20260901084706 | 74 | 241 | 0.9 | 1.7 | 0.00 | 0.14 | 0.00 | 94 | 1013.3 |
| 20260901084434 | 74 | 227 | 0.0 | 1.7 | 0.00 | 0.14 | 0.00 | 94 | 1013.3 |
| 20260901083937 | 74 | 204 | 1.7 | 2.6 | 0.00 | 0.14 | 0.00 | 94 | 1013.7 |
| 20260901083205 | 74 | 214 | 0.9 | 2.6 | 0.00 | 0.14 | 0.00 | 94 | 1013.7 |
| 20260901082708 | 75 | 203 | 1.7 | 1.7 | 0.00 | 0.14 | 0.00 | 94 | 1013.3 |
| 20260901082110 | 75 | 215 | 0.0 | 1.7 | 0.00 | 0.14 | 0.00 | 94 | 1013.3 |
| 20260901081836 | 75 | 218 | 0.9 | 1.7 | 0.00 | 0.14 | 0.00 | 94 | 1012.9 |
| 20260901081108 | 75 | 117 | 0.0 | 1.7 | 0.00 | 0.14 | 0.00 | 94 | 1013.3 |
| 20260901080609 | 75 | 209 | 1.7 | 1.7 | 0.00 | 0.14 | 0.00 | 93 | 1013.3 |
| 20260901080115 | 75 | 192 | 0.9 | 3.5 | 0.00 | 0.14 | 0.00 | 93 | 1013.3 |
| 20260901075607 | 75 | 277 | 0.9 | 3.5 | 0.00 | 0.14 | 0.00 | 93 | 1013.3 |
| 20260901075120 | 75 | 210 | 1.7 | 2.6 | 0.00 | 0.14 | 0.00 | 93 | 1013.3 |
| 20260901074607 | 76 | 238 | 1.7 | 2.6 | 0.00 | 0.14 | 0.00 | 93 | 1013.3 |
| 20260901074106 | 76 | 222 | 1.7 | 2.6 | 0.00 | 0.14 | 0.00 | 93 | 1013.3 |
| 20260901073607 | 76 | 218 | 0.9 | 3.5 | 0.00 | 0.14 | 0.00 | 93 | 1013.3 |
| 20260901073106 | 76 | 259 | 1.7 | 3.5 | 0.00 | 0.14 | 0.00 | 93 | 1013.3 |
| 20260901073046 | 76 | 183 | 0.9 | 3.5 | 0.00 | 0.14 | 0.00 | 93 | 1013.3 |
| 20260901072104 | 76 | 223 | 1.7 | 3.5 | 0.00 | 0.14 | 0.00 | 93 | 1013.3 |
| 20260901071604 | 76 | 249 | 1.7 | 3.5 | 0.00 | 0.14 | 0.00 | 92 | 1013.3 |
| 20260901071104 | 76 | 250 | 0.9 | 1.7 | 0.00 | 0.14 | 0.00 | 92 | 1012.9 |
| 20260901070830 | 76 | 240 | 0.9 | 1.7 | 0.00 | 0.14 | 0.00 | 92 | 1012.9 |
| 20260901070113 | 76 | 223 | 0.9 | 1.7 | 0.00 | 0.14 | 0.00 | 92 | 1013.3 |
| 20260901065823 | 76 | 205 | 0.0 | 1.7 | 0.00 | 0.14 | 0.00 | 92 | 1013.3 |
| 20260901065101 | 76 | 251 | 0.9 | 1.7 | 0.00 | 0.14 | 0.00 | 92 | 1012.9 |
| 20260901064602 | 76 | 209 | 1.7 | 1.7 | 0.00 | 0.14 | 0.00 | 92 | 1012.9 |
| 20260901064100 | 76 | 173 | 0.0 | 2.6 | 0.00 | 0.14 | 0.00 | 92 | 1013.3 |
| 20260901063558 | 76 | 236 | 0.9 | 2.6 | 0.00 | 0.14 | 0.00 | 92 | 1012.9 |
| 20260901063058 | 76 | 225 | 0.9 | 3.5 | 0.00 | 0.14 | 0.00 | 92 | 1012.9 |
| 20260901062557 | 76 | 234 | 0.0 | 3.5 | 0.00 | 0.14 | 0.00 | 92 | 1012.9 |
| 20260901062323 | 76 | 214 | 0.9 | 3.5 | 0.00 | 0.14 | 0.00 | 92 | 1012.9 |
| 20260901061557 | 76 | 210 | 0.9 | 3.5 | 0.00 | 0.14 | 0.00 | 91 | 1012.9 |
| 20260901061056 | 76 | 256 | 1.7 | 3.5 | 0.00 | 0.14 | 0.00 | 91 | 1012.9 |
| 20260901060558 | 76 | 219 | 0.0 | 2.6 | 0.00 | 0.14 | 0.00 | 91 | 1012.9 |
| 20260901060109 | 76 | 249 | 1.7 | 2.6 | 0.00 | 0.14 | 0.00 | 91 | 1012.9 |
| 20260901055555 | 76 | 269 | 0.0 | 2.6 | 0.00 | 0.14 | 0.00 | 91 | 1013.3 |
| 20260901055054 | 76 | 242 | 0.9 | 1.7 | 0.00 | 0.14 | 0.00 | 91 | 1012.9 |
| 20260901054554 | 77 | 234 | 1.7 | 3.5 | 0.00 | 0.14 | 0.00 | 91 | 1012.9 |
| 20260901054054 | 77 | 234 | 1.7 | 3.5 | 0.00 | 0.14 | 0.00 | 91 | 1012.9 |
| 20260901053815 | 77 | 248 | 1.7 | 3.5 | 0.00 | 0.14 | 0.00 | 91 | 1012.9 |
| 20260901053054 | 76 | 258 | 1.7 | 3.5 | 0.00 | 0.14 | 0.00 | 91 | 1013.3 |
| 20260901052818 | 76 | 247 | 1.7 | 2.6 | 0.00 | 0.14 | 0.00 | 91 | 1012.9 |
| 20260901052051 | 76 | 264 | 2.6 | 2.6 | 0.00 | 0.14 | 0.00 | 92 | 1012.9 |
| 20260901051552 | 76 | 219 | 1.7 | 3.5 | 0.00 | 0.14 | 0.00 | 92 | 1013.3 |
| 20260901051050 | 76 | 247 | 0.9 | 3.5 | 0.00 | 0.14 | 0.00 | 92 | 1013.3 |
| 20260901050553 | 76 | 230 | 0.0 | 2.6 | 0.00 | 0.14 | 0.00 | 92 | 1012.9 |
| 20260901045807 | 76 | 214 | 1.7 | 2.6 | 0.00 | 0.14 | 0.14 | 91 | 1013.3 |
| 20260901045309 | 76 | 226 | 1.7 | 2.6 | 0.00 | 0.14 | 0.14 | 91 | 1013.3 |
| 20260901044550 | 76 | 223 | 1.7 | 2.6 | 0.00 | 0.14 | 0.14 | 91 | 1013.3 |
| 20260901044049 | 76 | 233 | 1.7 | 1.7 | 0.00 | 0.14 | 0.14 | 91 | 1013.3 |
| 20260901043547 | 76 | 229 | 0.9 | 1.7 | 0.00 | 0.14 | 0.14 | 91 | 1013.3 |
| 20260901043047 | 76 | 211 | 0.0 | 1.7 | 0.00 | 0.14 | 0.14 | 91 | 1013.3 |
| 20260901042548 | 76 | 202 | 0.0 | 1.7 | 0.00 | 0.14 | 0.14 | 91 | 1013.7 |
| 20260901042046 | 76 | 173 | 0.0 | 2.6 | 0.00 | 0.14 | 0.14 | 91 | 1013.7 |
| 20260901041545 | 76 | 267 | 0.9 | 2.6 | 0.00 | 0.14 | 0.14 | 90 | 1013.7 |
| 20260901041044 | 76 | 154 | 0.0 | 1.7 | 0.00 | 0.14 | 0.14 | 90 | 1013.3 |
| 20260901040810 | 76 | 226 | 0.9 | 1.7 | 0.00 | 0.14 | 0.14 | 90 | 1013.3 |
| 20260901040043 | 76 | 242 | 1.7 | 1.7 | 0.00 | 0.14 | 0.14 | 90 | 1013.7 |
| 20260901035543 | 76 | 217 | 0.0 | 1.7 | 0.00 | 0.14 | 0.14 | 90 | 1013.3 |
| 20260901035045 | 76 | 224 | 0.0 | 1.7 | 0.00 | 0.14 | 0.14 | 91 | 1013.3 |
| 20260901034543 | 76 | 246 | 1.7 | 1.7 | 0.00 | 0.14 | 0.14 | 91 | 1013.7 |
| 20260901034043 | 76 | 204 | 0.9 | 1.7 | 0.00 | 0.14 | 0.14 | 91 | 1013.7 |
| 20260901033541 | 76 | 214 | 0.9 | 1.7 | 0.00 | 0.14 | 0.14 | 91 | 1013.7 |
| 20260901033042 | 76 | 204 | 0.9 | 1.7 | 0.00 | 0.14 | 0.14 | 91 | 1013.7 |
| 20260901032541 | 76 | 231 | 1.7 | 1.7 | 0.00 | 0.14 | 0.14 | 90 | 1013.3 |
| 20260901032039 | 77 | 251 | 0.0 | 1.7 | 0.00 | 0.14 | 0.14 | 90 | 1013.7 |
| 20260901031542 | 77 | 209 | 0.0 | 1.7 | 0.00 | 0.14 | 0.14 | 89 | 1013.7 |
| 20260901031039 | 77 | 322 | 0.0 | 2.6 | 0.00 | 0.14 | 0.14 | 89 | 1013.7 |
| 20260901030538 | 77 | 250 | 0.0 | 2.6 | 0.00 | 0.14 | 0.14 | 89 | 1013.7 |
| 20260901030303 | 78 | 247 | 1.7 | 1.7 | 0.00 | 0.15 | 0.14 | 88 | 1013.7 |
| 20260901025538 | 78 | 237 | 0.9 | 2.6 | 0.00 | 0.15 | 0.14 | 88 | 1013.3 |
| 20260901025037 | 78 | 226 | 1.7 | 2.6 | 0.00 | 0.15 | 0.14 | 88 | 1013.3 |
| 20260901024536 | 78 | 221 | 1.7 | 2.6 | 0.00 | 0.15 | 0.14 | 89 | 1013.3 |
| 20260901024036 | 77 | 227 | 1.7 | 2.6 | 0.00 | 0.15 | 0.14 | 91 | 1013.3 |
| 20260901023535 | 77 | 215 | 1.7 | 2.6 | 0.00 | 0.15 | 0.14 | 92 | 1013.3 |
| 20260901023035 | 77 | 213 | 1.7 | 2.6 | 0.00 | 0.15 | 0.14 | 93 | 1013.3 |
| 20260901022534 | 76 | 202 | 1.7 | 1.7 | 0.00 | 0.15 | 0.14 | 94 | 1013.7 |
| 20260901022033 | 76 | 232 | 0.9 | 2.6 | 0.00 | 0.15 | 0.14 | 95 | 1013.7 |
| 20260901021549 | 76 | 191 | 0.9 | 2.6 | 0.00 | 0.15 | 0.14 | 95 | 1013.3 |
| 20260901021032 | 76 | 148 | 1.7 | 1.7 | 0.00 | 0.15 | 0.14 | 95 | 1013.7 |
| 20260901020533 | 76 | 167 | 0.0 | 1.7 | 0.00 | 0.15 | 0.14 | 95 | 1014.0 |
| 20260901020032 | 76 | 293 | 0.0 | 1.7 | 0.00 | 0.15 | 0.14 | 95 | 1014.0 |
| 20260901015532 | 76 | 279 | 0.9 | 0.9 | 0.00 | 0.15 | 0.14 | 95 | 1014.0 |
| 20260901015030 | 77 | 325 | 0.0 | 0.0 | 0.00 | 0.16 | 0.14 | 94 | 1014.0 |
| 20260901014529 | 77 | 325 | 0.0 | 1.7 | 0.00 | 0.16 | 0.14 | 94 | 1013.7 |
| 20260901014250 | 77 | 246 | 0.9 | 1.7 | 0.00 | 0.17 | 0.14 | 94 | 1013.7 |
| 20260901013531 | 77 | 321 | 0.0 | 0.0 | 0.00 | 0.17 | 0.14 | 94 | 1013.7 |
| 20260901013029 | 77 | 326 | 0.0 | 0.9 | 0.00 | 0.17 | 0.14 | 93 | 1013.7 |
| 20260901012529 | 78 | 224 | 0.0 | 0.9 | 0.00 | 0.17 | 0.14 | 93 | 1013.3 |
| 20260901012027 | 78 | 255 | 0.0 | 0.9 | 0.00 | 0.17 | 0.14 | 93 | 1013.3 |
| 20260901011527 | 78 | 297 | 0.0 | 1.7 | 0.00 | 0.17 | 0.14 | 92 | 1013.3 |
| 20260901011028 | 78 | 229 | 0.0 | 2.6 | 0.00 | 0.17 | 0.14 | 92 | 1013.3 |
| 20260901010528 | 78 | 269 | 0.0 | 2.6 | 0.00 | 0.18 | 0.14 | 92 | 1012.9 |
| 20260901010027 | 78 | 184 | 0.9 | 2.6 | 0.00 | 0.18 | 0.14 | 92 | 1012.9 |
| 20260901005526 | 78 | 222 | 0.0 | 2.6 | 0.00 | 0.18 | 0.14 | 92 | 1012.9 |
| 20260901005023 | 78 | 224 | 0.0 | 2.6 | 0.00 | 0.18 | 0.14 | 92 | 1012.5 |
| 20260901004525 | 78 | 188 | 1.7 | 2.6 | 0.00 | 0.18 | 0.14 | 92 | 1012.9 |
| 20260901004023 | 78 | 201 | 1.7 | 1.7 | 0.00 | 0.18 | 0.14 | 93 | 1012.9 |
| 20260901003522 | 78 | 137 | 0.9 | 1.7 | 0.00 | 0.18 | 0.14 | 93 | 1013.3 |
| 20260901003023 | 78 | 210 | 0.9 | 1.7 | 0.00 | 0.18 | 0.14 | 93 | 1013.3 |
| 20260901002522 | 78 | 230 | 0.0 | 0.9 | 0.00 | 0.18 | 0.14 | 92 | 1013.3 |
| 20260901002020 | 78 | 235 | 0.0 | 0.9 | 0.00 | 0.18 | 0.14 | 92 | 1013.3 |
| 20260901001749 | 79 | 269 | 0.0 | 0.9 | 0.00 | 0.18 | 0.14 | 92 | 1013.3 |
| 20260901001021 | 79 | 326 | 0.0 | 0.9 | 0.00 | 0.18 | 0.14 | 91 | 1012.9 |
| 20260901000749 | 79 | 217 | 0.0 | 1.7 | 0.00 | 0.18 | 0.14 | 91 | 1012.9 |
| 20260901000022 | 79 | 286 | 0.0 | 0.9 | 0.00 | 0.18 | 0.14 | 91 | 1012.9 |
| 20260831235520 | 79 | 269 | 0.0 | 0.9 | 0.00 | 0.18 | 0.14 | 91 | 1012.5 |
| 20260831235017 | 79 | 197 | 0.0 | 1.7 | 0.00 | 0.18 | 0.14 | 90 | 1012.5 |
| 20260831234520 | 79 | 343 | 0.0 | 1.7 | 0.00 | 0.18 | 0.14 | 90 | 1012.5 |
| 20260831234017 | 80 | 261 | 1.7 | 1.7 | 0.00 | 0.18 | 0.14 | 90 | 1012.5 |
| 20260831233519 | 80 | 297 | 0.0 | 1.7 | 0.00 | 0.18 | 0.14 | 90 | 1012.5 |
| 20260831233016 | 80 | 258 | 0.9 | 1.7 | 0.00 | 0.18 | 0.14 | 89 | 1012.2 |
| 20260831232524 | 80 | 79 | 0.0 | 2.6 | 0.00 | 0.18 | 0.14 | 88 | 1011.9 |
| 20260831232016 | 80 | 74 | 0.9 | 2.6 | 0.00 | 0.18 | 0.14 | 87 | 1011.9 |
| 20260831231516 | 80 | 180 | 0.9 | 2.6 | 0.00 | 0.18 | 0.14 | 89 | 1012.2 |
| 20260831231016 | 80 | 167 | 1.7 | 2.6 | 0.01 | 0.18 | 0.14 | 91 | 1012.5 |
| 20260831230733 | 80 | 212 | 0.0 | 1.7 | 0.01 | 0.18 | 0.14 | 91 | 1013.3 |
| 20260831230013 | 80 | 253 | 0.9 | 2.6 | 0.01 | 0.18 | 0.14 | 91 | 1013.3 |
| 20260831225514 | 80 | 271 | 0.9 | 2.6 | 0.01 | 0.18 | 0.14 | 91 | 1013.3 |
| 20260831225012 | 80 | 257 | 0.9 | 2.6 | 0.01 | 0.18 | 0.14 | 91 | 1012.9 |
| 20260831224512 | 79 | 247 | 0.9 | 2.6 | 0.03 | 0.18 | 0.14 | 92 | 1012.9 |
| 20260831224012 | 79 | 265 | 1.7 | 2.6 | 0.03 | 0.18 | 0.14 | 93 | 1012.9 |
| 20260831223736 | 80 | 278 | 0.9 | 2.6 | 0.03 | 0.18 | 0.14 | 94 | 1012.5 |
| 20260831223011 | 79 | 329 | 1.7 | 2.6 | 0.03 | 0.18 | 0.14 | 93 | 1012.5 |
| 20260831222510 | 79 | 272 | 0.0 | 2.6 | 0.05 | 0.18 | 0.14 | 93 | 1012.5 |
| 20260831222008 | 79 | 292 | 2.6 | 2.6 | 0.05 | 0.18 | 0.14 | 93 | 1012.5 |
| 20260831221734 | 79 | 249 | 1.7 | 1.7 | 0.05 | 0.19 | 0.14 | 92 | 1012.2 |
| 20260831221455 | 79 | 140 | 1.7 | 3.5 | 0.04 | 0.18 | 0.13 | 92 | 1012.5 |
| 20260831220509 | 79 | 225 | 1.7 | 3.5 | 0.04 | 0.18 | 0.13 | 92 | 1012.9 |